Chicago Midway, IL

7:24 PM CDT on August 23, 2017 (GMT -0500)
Chicago-Midway

Weather History for KMDW - June, 2014

Change the Weather History Date:

Thursday, June 12, 2014

  Actual Average Record
Temperature  
Mean Temperature 73 °F 70 °F  
Max Temperature 82 °F 79 °F 97 °F (1956)
Min Temperature 63 °F 61 °F 48 °F (1985)
Degree Days  
Heating Degree Days 0 1  
Month to date heating degree days 2 21  
Since 1 June heating degree days 2 21  
Since 1 July heating degree days 6809 5980  
Cooling Degree Days 8 6  
Month to date cooling degree days 64 55  
Year to date cooling degree days 175 129  
Since 1 June cooling degree days 64 55  
Growing Degree Days 21 (Base 50)    
Moisture  
Dew Point 60 °F    
Average Humidity 75    
Maximum Humidity 100    
Minimum Humidity 42    
Precipitation  
Precipitation 0.01 in 0.14 in 1.33 in (1946)
Month to date precipitation 1.31 1.75  
Year to date precipitation 12.60 16.24  
Sea Level Pressure  
Sea Level Pressure 29.77 in    
Wind  
Wind Speed 10 mph (West)    
Max Wind Speed 22 mph    
Max Gust Speed 29 mph    
Visibility 7 miles    
Events Rain    
T = Trace of Precipitation, MM = Missing Value Source: NWS Daily Summary

Daily Weather History Graph

Daily Weather History Graph

Search for Another Location

Airport or City:

Trip Planner

Search our weather history database for the weather conditions in past years. The results will help you decide how hot, cold, wet, or windy it might be!

Date:

Astronomy

Jun. 12, 2014 Rise Set
Actual Time 5:15 AM CDT 8:26 PM CDT
Civil Twilight 4:41 AM CDT 9:00 PM CDT
Nautical Twilight 3:57 AM CDT 9:44 PM CDT
Astronomical Twilight 3:05 AM CDT 10:37 PM CDT
Moon 7:57 PM CDT (6/12) 4:57 AM CDT (6/12)
Length of Visible Light 16h 18m
Length of Day
15h 10m
Full, 100% of the Moon is Illuminated
Jun 12
Full
Jun 12
Full
Jun 19
Last Quarter
Jun 27
New
Jul 5
First Quarter

Hourly Weather History & Observations

Time (CDT) Temp. Heat Index Dew Point Humidity Pressure Visibility Wind Dir Wind Speed Gust Speed Precip Events Conditions
12:06 AM 64.0 °F - 62.1 °F 93% 29.75 in 5.0 mi WNW 4.6 mph - 0.00 in   Overcast
12:27 AM 63.0 °F - 61.0 °F 93% 29.75 in 3.0 mi WNW 5.8 mph - 0.00 in   Light Drizzle
12:51 AM 63.0 °F - 62.1 °F 97% 29.74 in 2.0 mi West 3.5 mph - 0.01 in   Light Drizzle
1:32 AM 63.0 °F - 62.1 °F 97% 29.74 in 2.0 mi WNW 5.8 mph - 0.00 in   Light Drizzle
1:51 AM 62.6 °F - 62.6 °F 100% 29.74 in 2.0 mi WNW 5.8 mph - N/A   Light Drizzle
2:51 AM 63.0 °F - 61.0 °F 93% 29.76 in 2.0 mi WNW 6.9 mph - 0.01 in   Light Drizzle
3:51 AM 63.0 °F - 62.1 °F 97% 29.74 in 2.0 mi Calm Calm - 0.00 in   Light Drizzle
4:05 AM 63.0 °F - 62.1 °F 97% 29.75 in 4.0 mi WNW 3.5 mph - 0.00 in   Overcast
4:11 AM 63.0 °F - 62.1 °F 97% 29.76 in 4.0 mi WNW 3.5 mph - 0.00 in   Overcast
4:51 AM 63.0 °F - 62.1 °F 97% 29.74 in 4.0 mi WNW 3.5 mph - 0.00 in   Overcast
5:06 AM 63.0 °F - 62.1 °F 97% 29.74 in 2.0 mi West 3.5 mph - 0.00 in   Light Drizzle
5:39 AM 64.0 °F - 62.1 °F 93% 29.75 in 3.0 mi WNW 5.8 mph - 0.00 in   Light Drizzle
5:51 AM 64.0 °F - 62.1 °F 93% 29.75 in 4.0 mi WNW 4.6 mph - 0.00 in   Mostly Cloudy
6:51 AM 64.0 °F - 61.0 °F 90% 29.76 in 5.0 mi West 5.8 mph - N/A   Overcast
7:51 AM 64.9 °F - 61.0 °F 87% 29.80 in 8.0 mi WSW 6.9 mph - N/A   Mostly Cloudy
9:51 AM 73.4 °F - 62.6 °F 69% 29.80 in 10.0 mi SW 9.2 mph - N/A   Mostly Cloudy
10:51 AM 75.9 °F - 63.0 °F 64% 29.77 in 10.0 mi WSW 12.7 mph - N/A   Mostly Cloudy
11:51 AM 80.1 °F 81.7 °F 64.0 °F 58% 29.76 in 10.0 mi WSW 13.8 mph 20.7 mph N/A   Mostly Cloudy
1:51 PM 79.0 °F - 64.0 °F 60% 29.76 in 10.0 mi WSW 17.3 mph 26.5 mph N/A   Overcast
2:51 PM 78.1 °F - 64.0 °F 62% 29.76 in 10.0 mi WSW 15.0 mph - N/A   Overcast
3:51 PM 78.1 °F - 63.0 °F 60% 29.75 in 10.0 mi WSW 13.8 mph 21.9 mph N/A   Mostly Cloudy
4:51 PM 78.1 °F - 62.1 °F 58% 29.75 in 10.0 mi West 12.7 mph 20.7 mph N/A   Mostly Cloudy
5:51 PM 77.0 °F - 60.1 °F 56% 29.76 in 10.0 mi West 17.3 mph 24.2 mph N/A   Mostly Cloudy
6:51 PM 75.9 °F - 57.9 °F 54% 29.76 in 10.0 mi West 12.7 mph 20.7 mph N/A   Mostly Cloudy
7:51 PM 75.0 °F - 55.0 °F 50% 29.78 in 10.0 mi West 12.7 mph 18.4 mph N/A   Mostly Cloudy
8:51 PM 73.0 °F - 55.0 °F 53% 29.79 in 10.0 mi West 8.1 mph - N/A   Mostly Cloudy
9:51 PM 69.8 °F - 51.8 °F 53% 29.84 in 10.0 mi West 8.1 mph - N/A   Scattered Clouds
10:51 PM 68.0 °F - 50.0 °F 52% 29.83 in 10.0 mi WNW 9.2 mph - N/A   Mostly Cloudy
11:51 PM 66.0 °F - 48.9 °F 54% 29.84 in 10.0 mi WNW 6.9 mph - N/A   Mostly Cloudy